Location: Potomac
(46.8816°N, 113.5795°W)
Time: 07:51:21
(UTC+00:00)

NANOSAT C BR1 - Pass Details

Date: 26 June 2022
Orbit: 584 x 599 km, 98.0° (Epoch: 17 August)

Event Time Altitude Azimuth Distance (km) Brightness Sun altitude
Rises 10:04:50 0° 10° (N) 2,845 ? -12.3°
Reaches altitude 10° 10:07:01 10° 7° (N) 1,941 ? -12.1°
Maximum altitude 10:11:10 61° 288° (WNW) 681 ? -11.6°
Enters shadow 10:14:24 16° 210° (SSW) 1,569 ? -11.3°
